Погода в Александровке

Украина / Николаевская область     46°50′13″N   32°45′39″E
темп.,
°C
ветер,
м/с
пор.,
м/с
влажн.,
%
обл.,
%
осадки,
мм/ч
давл.,
гПа
погр.,
м
18 мая, ср
ср1800:00+17ююз4667100 0.0 1012153
03:00+14зсз61085100 2.6 1011376
06:00+13ссз4792100 6.6 1009407
09:00+11ссз5883100 9.6 1011609
12:00+13с81061100 0.3 10131425
15:00+14с6747100 0.3 10141717
18:00+13ссз795258 0.2 10151478
21:00+10ссз71269100 0.9 1017682
19 мая, чт
чт1900:00+8сз7138395 0.1 1019481
03:00+8ссз5893100 1.3 1019423
06:00+9ссз7128974 4.1 1020683
09:00+12с710715 4.3 1022775
12:00+17с8104771 0.1 10222186
15:00+16с585293 0.1 10221382
18:00+17с4753100 0.0 1022694
21:00+15зсз23575 0.0 102347
20 мая, пт
пт2000:00+14сз356371 0.0 1024123
03:00+11сз35715 0.0 102379
06:00+11сз37765 0.0 1024145
09:00+17сз57559 0.0 1024555
12:00+21сз563821 0.0 10231755
15:00+23зсз453517 0.0 10212136
18:00+20зюз6849100 0.0 1020585
21:00+16юз61161100 0.0 1019362
21 мая, сб
сб2100:00+15юз61367100 0.0 1017338
03:00+14юз6148489 0.0 1015363
06:00+15юз61388100 0.0 1013381
09:00+16зюз61180100 0.4 1012467
12:00+24зсз9124882 0.3 10101896
15:00+24сз10133715 0.3 10092101
18:00+20ссз8105337 0.0 10111595
21:00+15ссв486899 0.0 1013379
22 мая, вс
вс2200:00+12в367657 0.0 1013225
03:00+13вюв3672100 0.0 1011364
06:00+11в5792100 5.7 1009302
09:00+11в4593100 7.9 1009285
12:00+12в2285100 0.1 1008417
15:00+14всв117999 0.1 1008551
18:00+15ссз237683 0.7 1008559
21:00+12в349241 1.9 100999